Miscellaneous Local Product
Issued by NWS North Platte, NE

Home | Current Version | Previous Version | Text Only | Print | Product List | Glossary On
Versions: 1 2 3 4 5 6 7 8 9 10 11 12 13 14 15 16 17 18 19 20 21 22 23 24 25 26 27 28 29 30 31 32 33 34 35 36 37 38 39 40 41 42 43 44 45 46 47 48 49 50
058
AXUS43 KLBF 282210
MISLBF


WESTERN AND NORTH CENTRAL NEBRASKA HOURLY WEATHER ROUNDUP
NATIONAL WEATHER SERVICE NORTH PLATTE NE
500 PM CDT TUE MAR 28 2017

NOTE: "FAIR" INDICATES FEW OR NO CLOUDS BELOW 12,000 FEET WITH NO
SIGNIFICANT WEATHER AND/OR OBSTRUCTIONS TO VISIBILITY.

NOTE: STATIONS NOT REPORTING VARIABLES SUCH AS SKY/WEATHER OR
PRESSURE ARE PROVIDED BY RAWS AND APRS NETWORKS AND ARE NOT UNDER
NATIONAL WEATHER SERVICE QUALITY CONTROL.

...OBSERVATIONS IN AND NEAR THE EASTERN PANHANDLE OF NEBRASKA...

CITY           SKY/WX    TMP DP  RH WIND       PRES   REMARKS
PINE RIDGE     LGT RAIN  46  42  86 E10       30.04R
CHADRON        LGT RAIN  46  43  89 NE9       30.02S
ALLIANCE       LGT RAIN  42  41  96 E12       29.99R FOG
SIDNEY         LGT RAIN  43  41  93 E20G26    29.94R FOG
CRESCENT LAKE    N/A     42  42 100 E15G23      N/A
$$

...OBSERVATIONS IN NORTHERN NEBRASKA AND FAR SOUTHERN SOUTH DAKOTA...

CITY           SKY/WX    TMP DP  RH WIND       PRES   REMARKS
WINNER         LGT RAIN  50  45  83 SW3       30.08R
VALENTINE      LGT RAIN  46  42  86 E13       30.07R FOG
THEDFORD       RAIN      47  43  86 E6        30.04S
AINSWORTH      CLOUDY    49  42  75 E7        30.05S
O`NEILL        CLOUDY    54  38  54 E13       30.06S
ORD            PTSUNNY   51  38  60 E10       30.03S
BROKEN BOW     CLOUDY    48  38  68 E13       30.03R
VALENTINE NWR    N/A     47  42  83 E8          N/A
HALSEY           N/A     48  40  73 E7          N/A
BUTTE            N/A     53  39  59 E9          N/A
CHAMBERS         N/A     55  38  52 E6          N/A
EWING            N/A     56  42  58 E10         N/A
$$

...OBSERVATIONS IN SOUTHWEST NEBRASKA AND FAR NORTHEAST COLORADO...

CITY           SKY/WX    TMP DP  RH WIND       PRES   REMARKS
WRAY           LGT RAIN N/A N/A N/A SE16G23   29.94
HOLYOKE        LGT RAIN  45  43  93 E22G30    29.95R
IMPERIAL       LGT RAIN  44  42  93 SE17      29.99R FOG
OGALLALA       LGT RAIN  46  43  90 E14G22    30.00R
NORTH PLATTE   LGT RAIN  47  44  90 E12       30.01R FOG
MCCOOK         LGT RAIN  47  46  97 E7        30.01R FOG
LEXINGTON      LGT RAIN  49  41  74 E10       30.03R
STAPLETON        N/A     44  42  94 CALM        N/A
GOTHENBURG       N/A     47  41  80 E8          N/A
CALLAWAY         N/A     47  43  87 E3          N/A
$$

...OBSERVATIONS IN CENTRAL LINCOLN COUNTY AREA...

CITY           SKY/WX    TMP DP  RH WIND       PRES   REMARKS
N.P. AIRPORT   LGT RAIN  47  44  90 E12       30.01R FOG
N.P. DOWNTOWN    N/A     45  43  94 E5          N/A
N.P. SOUTHEAST   N/A     45  43  92 NE3         N/A
N.P. HILLCREST   N/A     45  43  94 E12         N/A
$$

...SOME OBSERVATIONS FROM AROUND THE REGION...

CITY           SKY/WX    TMP DP  RH WIND       PRES   REMARKS
DENVER         LGT RAIN  43  41  93 N16       29.86S FOG
LIMON          LGT RAIN  43  43 100 SE12      29.86R
ASPEN          LGT RAIN  40  35  83 N9        29.87R WCI  34
LARAMIE        LGT RAIN  37  33  85 N18G25    29.95R WCI  27
CASPER         CLOUDY    43  35  73 NE17      30.05R
CHEYENNE       CLOUDY    42  38  85 NE15G23   29.91R
SCOTTSBLUFF    RAIN      45  42  89 E14       29.98R FOG
GRAND ISLAND   CLOUDY    48  41  76 E15       30.04R
OMAHA          CLOUDY    51  41  68 E13       30.07S
SIOUX FALLS    CLOUDY    60  38  43 E13       30.08S
PIERRE         CLOUDY    56  39  53 SE9       30.07S
RAPID CITY     CLOUDY    45  41  86 CALM      30.05R
BISMARCK       MOSUNNY   63  36  36 SE12      30.08S
KANSAS CITY    CLOUDY    53  49  86 E12       30.01F
HILL CITY      RAIN      48  47  96 E9        29.99R FOG
WICHITA        CLOUDY    54  47  77 NE17      29.90F
DODGE CITY     RAIN      47  46  97 NE9       29.93R FOG
OKLAHOMA CITY  CLOUDY    67  56  67 E13       29.75S
DALLAS         PTSUNNY   81  67  62 SE16G22   29.67F
AMARILLO       CLOUDY    55  52  89 E14       29.73S
$$




USA.gov is the U.S. government's official web portal to all federal, state and local government web resources and services.